Regional Weather Roundup
Issued by NWS

Home | Current Version | Previous Version | Text Only | Print | Product List | Glossary Off
Versions: 1 2 3 4 5 6 7 8 9 10 11 12 13 14 15 16 17 18 19 20 21 22 23 24 25 26 27 28 29 30 31 32 33 34 35 36 37 38 39 40 41 42 43 44 45 46 47 48 49 50

000
ASUS43 KLOT 232002
RWRIL

ILLINOIS REGIONAL WEATHER ROUNDUP
NATIONAL WEATHER SERVICE CHICAGO/ROMEOVILLE IL
300 PM CDT THU MAR 23 2017

NOTE: "FAIR" INDICATES FEW OR NO CLOUDS BELOW 12,000 FEET WITH NO
SIGNIFICANT WEATHER AND/OR OBSTRUCTIONS TO VISIBILITY.

* THESE STATIONS ARE NOT UNDER NWS QUALITY CONTROL. THEY ALSO MAY NOT
  REPORT WEATHER SUCH AS PRECIPITATION OR FOG.

ILZ001-002-007-009-015-016-024-232100-
NORTHWEST ILLINOIS

CITY           SKY/WX    TMP DP  RH WIND       PRES   REMARKS
MOLINE         CLOUDY    44  31  60 S17G24    30.12F
STERLING*      CLOUDY    41  27  57 SE13      30.17F
SAVANNA*       CLOUDY    41  26  55 SE16      30.14F
$$

ILZ003-004-008-010-011-017-018-232100-
NORTH CENTRAL ILLINOIS

CITY           SKY/WX    TMP DP  RH WIND       PRES   REMARKS
ROCKFORD       CLOUDY    44  23  43 S20       30.20F
FREEPORT*      CLOUDY    42  24  48 SE16      30.17F
ROCHELLE*      CLOUDY    43  26  50 S16       30.19F
DE KALB*       CLOUDY    45  25  44 S20G26    30.19F
PERU*          CLOUDY    42  26  53 SE16      30.19F
$$

ILZ005-006-012>014-019>023-232100-
NORTHEAST ILLINOIS

CITY           SKY/WX    TMP DP  RH WIND       PRES   REMARKS
CHICAGO-OHARE  CLOUDY    49  23  36 S14G22    30.21F
CHICAGO-MIDWAY CLOUDY    48  23  37 S14G22    30.22F
AURORA         CLOUDY    48  25  40 SE18      30.19F
LANSING*       CLOUDY    46  29  51 S15       30.24F
JOLIET*        CLOUDY    50  27  40 SE17G23   30.21F
WAUKEGAN       CLOUDY    38  25  59 SE14G22   30.21F WCI  30
DUPAGE AIRPORT CLOUDY    47  25  42 S17       30.20F
WHEELING       CLOUDY    47  23  38 SE8       30.21F
MORRIS*        CLOUDY    48  24  39 SE18      30.19F
NORTHERLY ISL    N/A     45  25  45 SE10        N/A
$$

LMZ740>746-232100-
SOUTHERN LAKE MICHIGAN

STATION/POSITION SKY/WX   TEMP    WIND        PRES    VSBY  WAVE
                          AIR SEA DIR/SP/G                  HT/PER
                          (F)     (DEG/KT/KT) (MB)    (MI)  (FT/S)
HARRISON CRIB              40     140/ 16/ 17   N/A
BURNHAM HARBOR             45     120/  6/ 14   N/A
CALUMET HARBOR             45     160/ 14/ 19 1023.3F
BURNS HARBOR               46     140/ 12/ 19 1024.7F
MICHIGAN CITY              43     140/ 13/ 18   N/A
$$

ILZ025>027-034>036-040-047-049-050-058-095>099-232100-
WEST-CENTRAL ILLINOIS

CITY           SKY/WX    TMP DP  RH WIND       PRES   REMARKS
QUINCY         SUNNY     50  39  66 SE15G24   30.07F
GALESBURG*     RAIN      39  35  86 SE14G24   30.11F WCI  31
MACOMB*        CLOUDY    41  39  95 SE17      30.13F
JACKSONVILLE*  CLOUDY    43  39  85 SE16      30.14F
PITTSFIELD*    PTSUNNY   48  40  72 SE17      30.12F
$$

ILZ028>032-037-038-041>044-048-051>054-059>061-232100-
CENTRAL ILLINOIS

CITY           SKY/WX    TMP DP  RH WIND       PRES   REMARKS
PONTIAC        CLOUDY    47  28  47 S14G22    30.20F
BLOOMINGTON    CLOUDY    45  26  47 S17       30.19F
DECATUR        CLOUDY    44  30  57 SE13      30.20F
PEORIA         CLOUDY    41  33  73 SE13      30.17F
SPRINGFIELD    CLOUDY    41  39  93 SE13      30.17F
TAYLORVILLE    NOT AVBL
$$

ILZ033-039-045-046-055>057-062-063-232100-
EAST-CENTRAL ILLINOIS

CITY           SKY/WX    TMP DP  RH WIND       PRES   REMARKS
CHAMPAIGN      CLOUDY    49  23  36 S17       30.21F
RANTOUL*       CLOUDY    50  27  40 S16       30.21F
MATTOON        CLOUDY    45  30  55 SE13      30.21F
PARIS*         CLOUDY    49  30  48 E9        30.25F
$$

ILZ079-100>102-232100-
SOUTHWEST ILLINOIS

CITY           SKY/WX    TMP DP  RH WIND       PRES   REMARKS
ALTON          CLOUDY    46  39  76 SE13      30.16F
CAHOKIA*       CLOUDY    54  42  64 SE10G21   30.15F
SPARTA*        SUNNY     53  42  68 SE14      30.18F
$$

ILZ064>066-069>071-074>076-080>082-084>086-088>090-092>094-232100-
SOUTH-CENTRAL ILLINOIS

CITY           SKY/WX    TMP DP  RH WIND       PRES   REMARKS
CARBONDALE     SUNNY     54  46  74 E8        30.20F
CAIRO*         SUNNY     62  38  41 SE5       30.20F
EFFINGHAM*     LGT RAIN  41  37  83 SE10G17   30.24F
MARION         MOSUNNY   55  45  67 SE12      30.22F
MT. VERNON     MOSUNNY   49  41  74 SE10      30.22F
CENTRALIA*     CLOUDY    48  42  81 SE10      30.20F
SALEM*         CLOUDY    41  37  86 E9        30.22F
$$

ILZ067-068-072-073-078-083-087-091-232100-
SOUTHEAST ILLINOIS

CITY           SKY/WX    TMP DP  RH WIND       PRES   REMARKS
LAWRENCEVILLE  CLOUDY    48  32  53 S10       30.28F
FLORA*         CLOUDY    43  37  82 SE12      30.24F
FAIRFIELD*     CLOUDY    45  38  77 E8        30.23F
HARRISBURG*    PTSUNNY   49  44  81 SE10      30.24F
ROBINSON*      CLOUDY    47  29  48 SE10      30.27F
CARMI*         PTSUNNY   47  41  79 SE10      30.25F
$$

ABBREVIATIONS USED IN REMARKS
   TC - TEMPERATURE IN CELSIUS
  WCI - WIND CHILL INDEX
   HX - HEAT INDEX
  VSB - VISIBILITY
$$





USA.gov is the U.S. government's official web portal to all federal, state and local government web resources and services.